Calicut International Airport

Jump to: basic info | weather | frequencies | runways | comments

Related pages: nearby airports | nearby navaids | notams | map

Basic information (top)

Codes: CCJ VOCL
Location: lon 11.136800, lat 75.955299, elev 342 ft / 104 m msl
Status: large_airport
Scheduled airline service: yes
Links: Wikipedia Mobile

Weather (top)

Current conditions (rec'd 2015/03/05 14:00Z):

VOCL 051400Z 29005KT 6000 FEW015 FEW025CB 29/21 Q1011 NOSIG

Airport forecast (rec'd 2015/03/05 06:00Z):

TAF VOCL 050300Z 0506/0612 29010KT 7000 FEW015 
      TEMPO 0508/0514 3000 TSRA/RA FEW025CB BKN080 
      BECMG 0515/0516 5000 HZ 
      BECMG 0520/0521 00000KT 
      TEMPO 0600/0603 3000 HZ 
      BECMG 0505/0506 29010KT 7000 
      TEMPO 0509/0512 3000 TSRA/RA SCT012 FEW025CB BKN080

Frequencies (top)

Verify before use: may be inaccurate or out of date.

ATIS: 127 MHz (ATIS)
TWR: 122.95 MHz (TWR)

Runways (top)

10/28: 9,383 x 150 ft (2,860 x 46 m) — paved — lighted

Latest comments (top)

Moideenkutty oorakam ( CCJ ): Calicut int airport ( Terminal,1 - ... [read]

Info: Calicut International Airport ... [read]

More... (top)

See also NOTAMs and nearby airports and navaids, or visit the Calicut International Airport page at the main OurAirports website..